Date String (YYYY-MM-DD hh:mm:ss) UTC,Instrument flags,Ambient pressure (hPa),Sample flow (lpm),Bypass flow (lpm),Sample temperature (°C),Ambient temperature (°C),ASC tube jacket temperature (°C),LED temperature (°C),Box temperature (°C),Sample RH (%),Mass concentration (μg/m³),Mass concentration (μg/m³)
DateTimeUTC,F1_M11,P_M11,Q1_M11,Q2_M11,T1_M11,T2_M11,T3_M11,T4_M11,T5_M11,U1_M11,X0_M11,X2_M11
2021-08-13 13:00:00,,0834.9,4.99,0.00,30.0,27.0,00.0,39.1,31.4,28.0,0026.91,0007.86
2021-08-13 13:01:00,,0834.9,5.01,0.00,29.8,26.6,00.0,39.1,31.3,28.4,0026.34,0007.87
2021-08-13 13:02:00,,0834.9,4.99,0.00,29.7,26.9,00.0,39.0,31.3,28.9,0026.91,0007.95
2021-08-13 13:03:00,,0834.9,5.00,0.00,29.6,27.2,00.0,39.0,31.4,29.1,0026.62,0007.97
2021-08-13 13:04:00,,0834.9,5.00,0.00,29.6,27.6,00.0,38.9,31.4,29.1,0027.78,0008.00
2021-08-13 13:05:00,,0835.0,4.99,0.00,29.6,27.9,00.0,38.9,31.5,29.0,0027.22,0008.04
2021-08-13 13:06:00,,0834.9,5.00,0.00,29.6,28.1,00.0,38.9,31.5,29.0,0027.82,0008.08
2021-08-13 13:07:00,,0835.0,5.01,0.00,29.6,28.3,00.0,38.9,31.6,29.0,0027.76,0008.13
2021-08-13 13:08:00,,0834.9,4.98,0.00,29.7,28.4,00.0,38.9,31.6,28.9,0026.45,0008.09
2021-08-13 13:09:00,,0834.9,5.01,0.00,29.7,28.5,00.0,38.9,31.6,28.8,0026.06,0007.99
2021-08-13 13:10:00,,0835.0,5.00,0.00,29.7,28.6,00.0,38.9,31.6,28.6,0025.28,0008.04
2021-08-13 13:11:00,,0835.0,4.99,0.00,29.7,28.7,00.0,38.9,31.7,28.6,0025.65,0008.16
2021-08-13 13:12:00,,0835.0,5.00,0.00,29.8,28.8,00.0,38.9,31.8,28.6,0025.74,0008.24
2021-08-13 13:13:00,,0835.0,5.00,0.00,29.8,28.9,00.0,38.9,31.8,28.6,0024.91,0008.23
2021-08-13 13:14:00,,0835.0,5.01,0.00,29.8,29.0,00.0,38.9,31.7,28.7,0025.39,0008.26
2021-08-13 13:15:00,,0835.0,4.98,0.00,29.9,29.0,00.0,38.9,31.8,28.8,0024.35,0008.30
2021-08-13 13:16:00,,0835.0,5.01,0.00,29.9,29.1,00.0,38.9,31.8,28.8,0024.84,0008.42
2021-08-13 13:17:00,,0835.0,5.00,0.00,29.9,29.1,00.0,39.0,31.9,28.8,0024.63,0008.45
2021-08-13 13:18:00,,0835.0,5.00,0.00,30.0,29.2,00.0,39.0,31.9,28.8,0025.60,0008.52
2021-08-13 13:19:00,,0835.0,4.99,0.00,30.0,29.2,00.0,39.0,31.9,29.1,0027.00,0008.59
2021-08-13 13:20:00,,0835.0,5.02,0.00,30.0,29.3,00.0,39.0,32.0,29.7,0027.23,0008.75
2021-08-13 13:21:00,,0835.1,4.99,0.00,30.1,29.3,00.0,39.0,32.0,29.1,0027.84,0008.75
2021-08-13 13:22:00,,0835.1,5.00,0.00,30.1,29.3,00.0,39.1,32.0,29.4,0028.50,0008.69
2021-08-13 13:23:00,,0835.1,5.01,0.00,30.1,29.4,00.0,39.1,32.0,29.6,0030.81,0008.67
2021-08-13 13:24:00,,0835.1,4.99,0.00,30.1,29.4,00.0,39.1,32.0,29.4,0031.66,0008.68
2021-08-13 13:25:00,,0835.2,5.01,0.00,30.2,29.4,00.0,39.1,32.1,29.1,0030.94,0008.67
2021-08-13 13:26:00,,0835.2,5.00,0.00,30.1,28.3,00.0,39.1,31.8,29.2,0030.18,0008.61
2021-08-13 13:27:00,,0835.2,5.00,0.00,29.9,26.4,00.0,39.1,31.3,29.8,0029.59,0008.58
2021-08-13 13:28:00,,0835.2,5.00,0.00,29.7,25.9,00.0,39.1,31.1,29.9,0028.00,0008.62
2021-08-13 13:29:00,,0835.2,4.98,0.00,29.6,26.3,00.0,39.0,31.2,30.1,0026.70,0008.58
2021-08-13 13:30:00,,0835.2,5.01,0.00,29.5,26.8,00.0,38.9,31.2,30.4,0025.70,0008.49
2021-08-13 13:31:00,,0835.2,4.98,0.00,29.5,27.2,00.0,38.9,31.3,31.0,0025.92,0008.40
2021-08-13 13:32:00,,0835.2,4.99,0.00,29.5,27.5,00.0,38.9,31.3,30.9,0026.00,0008.42
2021-08-13 13:33:00,,0835.3,5.01,0.00,29.5,27.8,00.0,38.8,31.4,31.0,0024.77,0008.43
2021-08-13 13:34:00,,0835.2,5.00,0.00,29.5,28.1,00.0,38.8,31.4,30.7,0022.42,0008.48
2021-08-13 13:35:00,,0835.2,4.99,0.00,29.5,28.3,00.0,38.8,31.5,30.8,0021.80,0008.45
2021-08-13 13:36:00,,0835.2,5.01,0.00,29.6,28.4,00.0,38.8,31.5,29.8,0023.19,0008.47
2021-08-13 13:37:00,,0835.2,5.01,0.00,29.6,28.5,00.0,38.8,31.6,29.6,0023.51,0008.48
2021-08-13 13:38:00,,0835.2,5.00,0.00,29.6,28.7,00.0,38.8,31.6,29.8,0022.90,0008.41
2021-08-13 13:39:00,,0835.2,5.00,0.00,29.7,28.7,00.0,38.8,31.7,29.7,0022.85,0008.30
2021-08-13 13:40:00,,0835.2,4.99,0.00,29.7,28.8,00.0,38.8,31.7,29.2,0023.43,0008.23
2021-08-13 13:41:00,,0835.2,5.02,0.00,29.8,28.9,00.0,38.8,31.7,29.3,0023.23,0008.27
2021-08-13 13:42:00,,0835.2,5.00,0.00,29.8,29.0,00.0,38.9,31.7,29.2,0022.88,0008.24
2021-08-13 13:43:00,,0835.2,4.99,0.00,29.8,29.0,00.0,38.9,31.8,29.3,0022.04,0008.14
2021-08-13 13:44:00,,0835.2,4.99,0.00,29.9,29.1,00.0,38.9,31.9,29.3,0023.10,0008.12
2021-08-13 13:45:00,,0835.2,5.01,0.00,29.9,29.1,00.0,38.9,31.9,29.1,0023.24,0008.03
2021-08-13 13:46:00,,0835.2,5.00,0.00,30.0,29.2,00.0,38.9,31.9,28.9,0023.23,0007.97
2021-08-13 13:47:00,,0835.2,4.99,0.00,30.0,29.2,00.0,39.0,32.0,28.4,0022.70,0007.95
2021-08-13 13:48:00,,0835.2,4.99,0.00,30.0,29.3,00.0,39.0,32.0,28.3,0022.94,0007.96
2021-08-13 13:49:00,,0835.2,5.00,0.00,30.1,29.3,00.0,39.0,32.0,28.9,0024.34,0007.94
2021-08-13 13:50:00,,0835.2,4.99,0.00,30.1,29.4,00.0,39.0,32.0,28.6,0025.46,0007.94
2021-08-13 13:51:00,,0835.2,5.01,0.00,30.1,29.2,00.0,39.1,32.0,28.3,0025.21,0007.90
2021-08-13 13:52:00,,0835.2,5.00,0.00,30.0,27.6,00.0,39.0,31.6,28.5,0025.29,0007.85
2021-08-13 13:53:00,,0835.2,5.00,0.00,29.8,26.2,00.0,39.0,31.2,29.3,0025.44,0007.86
2021-08-13 13:54:00,,0835.2,5.01,0.00,29.6,26.3,00.0,39.0,31.1,29.5,0026.08,0007.89
2021-08-13 13:55:00,,0835.2,4.99,0.00,29.5,26.7,00.0,38.9,31.2,29.7,0025.57,0007.80
2021-08-13 13:56:00,,0835.2,5.00,0.00,29.5,27.1,00.0,38.9,31.3,29.8,0026.57,0007.80
2021-08-13 13:57:00,,0835.2,5.01,0.00,29.5,27.5,00.0,38.8,31.3,30.0,0028.26,0007.88
2021-08-13 13:58:00,,0835.3,5.01,0.00,29.5,27.8,00.0,38.8,31.4,30.3,0028.38,0007.88
2021-08-13 13:59:00,,0835.3,4.98,0.00,29.5,28.0,00.0,38.8,31.4,30.2,0028.33,0007.87
